Flag for Maldives Weather past 2 weeks in Male, Maldives

Now
77 °F

Light rain. Overcast.


Feels Like: 78 °F
Forecast: 80 / 87 °F
Wind: 7 mph from Southwest

Location: Male Airport

Current Time: Oct 23, 2014 at 3:32:51 PM

Latest Report: Oct 23, 2014 at 2:00 PM


Visibility: 6 mi

Pressure: 29.86 "Hg

Humidity: 94%

Dew point: 75 °F

Location of MaleLocation

Historic Weather in Male — Graph

°F

Male temperature yesterday

Maximum temperature yesterday: 88 °F (at 1:00 PM)
Minimum temperature yesterday: 81 °F (at 4:00 AM)
Average temperature yesterday: 83 °F

Past Weeks' High & Low Weather Summary

 TemperatureHumidityPressure
High90 °F (Oct 21, 11:00 AM)100% (Oct 17, 3:00 AM)29.95 "Hg (Oct 17, 3:00 AM)
Low75 °F (Oct 17, 3:00 AM)62% (Oct 19, 11:00 AM)29.74 "Hg (Oct 21, 2:00 AM)
Average84 °F80%29.84 "Hg
* Reported Oct 8 2:00 PM — Oct 23 2:00 PM, Male, Weather by CustomWeather, © 2014

Note: Actual official high and low records may vary slightly from our data, if they occured in-between our weather recording intervals... More about our weather records

Advertising

Male weather history for previous 24 hours

 ConditionsComfort  
Time TempWeatherWind HumidityBarometerVisibility
2:00 PM
Oct 23
77 °FLight rain. Overcast.7 mph94%29.86 "Hg6 mi
1:00 PM77 °FRain. More clouds than sun.17 mph94%29.89 "Hg2 mi
11:00 AM86 °FBroken clouds.8 mph79%29.92 "HgN/A
10:00 AM84 °FPartly sunny.6 mph79%29.95 "HgN/A
9:00 AM84 °FBroken clouds.6 mph74%29.92 "HgN/A
8:00 AM82 °FBroken clouds.10 mph79%29.92 "HgN/A
6:00 AM82 °FPartly sunny.6 mph84%29.86 "HgN/A
5:00 AM82 °FPassing clouds.7 mph84%29.83 "HgN/A
4:00 AM82 °FPartly cloudy.7 mph84%29.83 "HgN/A
3:00 AM82 °FPassing clouds.7 mph79%29.83 "HgN/A
2:00 AM82 °FPassing clouds.8 mph79%29.83 "HgN/A
12:00 AM82 °FClear.9 mph79%29.89 "HgN/A
11:00 PM
Oct 22
82 °FPartly cloudy.12 mph89%29.92 "HgN/A
10:00 PM82 °FPassing clouds.9 mph84%29.92 "HgN/A
9:00 PM82 °FPartly cloudy.14 mph84%29.89 "HgN/A
8:00 PM82 °FPartly cloudy.14 mph84%29.89 "HgN/A
7:00 PM82 °FPartly cloudy.14 mph84%29.86 "HgN/A
6:00 PM81 °FScattered showers. Partly cloudy.16 mph94%29.83 "HgN/A
5:00 PM81 °FSprinkles. Broken clouds.7 mph94%29.80 "Hg6 mi
4:00 PM82 °FSprinkles. Broken clouds.9 mph89%29.80 "Hg6 mi
3:00 PM86 °FBroken clouds.12 mph75%29.80 "HgN/A
Weather by CustomWeather, © 2014

See weather overviewHow to use our weather pages